THOR ABLESTAR DEB, 354

Orbit data source: Space-Track

THOR ABLESTAR DEB, 354 is space debris in LEO originally from a launch on Thu, 29 Jun 1961 UTC launched from the Air Force Eastern Test Range (AFETR). Debris objects in space refer to the collection of defunct objects orbiting the Earth. Examples of debris include non-operational satellites, rocket bodies, and fragments generated from explosions, collisions, or faulty payload assembly.

Loading next visibility...
Identifier
354, 1961-015DU
Orbit
LEO
Last TLE update
15 hours ago
Origin
Manufacturer
Unknown
Mission
Spacecraft
Bus & Motor
Unknown
Mass
Unknown
Launch date (UTC)
1961-06-29 (64 years ago)
Launch vehicle
Unknown
Launch site
Air Force Eastern Test Range (AFETR)
Object type
Payload
Rocket body
Debris
Shape & HBR
Unknown
Radar Cross Section
Small (<0.1 m²)

Expand to show TLE details & history

TLE from 15 hours ago
0 THOR ABLESTAR DEB
1 00354U 61015DU  25128.72351860  .00000157  00000-0  32576-3 0  9994
2 00354  67.0665 290.7373 0170752 234.0872 236.0188 13.49255826423308
Epoch: 2025-05-08T17:21Z
Definitive object data (Epoch: 2025-05-08T17:21:52.007Z)
Latitude
60.96135°
Longitude
-65.82695°
Altitude
1,157.2 km
Speed
7.245 km/s
True Right ascension
04h 05m 43s
True Declination
60° 49' 23"
Sunlit
Object was in daylight at TLE epoch
Visualization TLE readout
Latitude
-29.98431°
Longitude
-3.84676°
Altitude
966.293 km
Speed
7.427 km/s
Apparent Right ascension
06h 31m 36s
Apparent Declination
-38° 13' 24"
Sunlit
Object is in daylight
Visualization observer readout
Local Sidereal Time
16:15:30
Azimuth
262.641° W
Elevation
-63.687°
Doppler factor
1
Orbital elements
Apogee altitude
1,200.63 km
Perigee altitude
946.157 km
Semi-major axis
7,451.53 km
Eccentricity
0.0170752
Inclination
67.0665°
RAAN
290.7373°
Arg. of periapsis
234.0872°
True anomaly
234.41563°
Mean anomaly
236.0188°
Eccentric anomaly
235.21529°
Mean motion
3.37423 °/min
BSTAR
0.00032576
Orbital period
106.69 mins
Loading maneuver chart data...
Loading SW <> Apogee altitude chart data...

THOR ABLESTAR DEB Visibility forecast

Observer location: undefined°, undefined°

Span
Click to sort rows by Start time (UTC) header in descending order
Start Az.
Max El. time (UTC)
Max El. Az.
Max El.
End time (UTC)
End Az.
9 mins2025-05-09 10:43:23.573Z139.161° SSE2025-05-09 10:47:23.573Z103.984° ESE18.352°2025-05-09 10:52:23.573Z60.849° ENE
13 mins2025-05-09 12:30:23.573Z211.592° SW2025-05-09 12:36:23.573Z273.807° WNW44.64°2025-05-09 12:43:23.573Z26.772° NE
9 mins2025-05-09 14:23:23.573Z281.362° WNW2025-05-09 14:27:23.573Z318.079° NNW19.611°2025-05-09 14:32:23.573Z3.028° NNE
10 mins2025-05-09 20:03:23.573Z356.349° N2025-05-09 20:08:23.573Z49.779° ENE24.294°2025-05-09 20:13:23.573Z99.191° ESE
11 mins2025-05-09 21:53:23.573Z323.428° NNW2025-05-09 21:58:23.573Z248.169° W42.723°2025-05-09 22:04:23.573Z165.983° S
|